KAP111 KBOS-KMVY

Flight info

Callsign KAP111
Flight time 0h 32m
Altitude 8000
Route LOGAN4 DUNKK
Aircraft C402/L-SDFR/C

Departure

Time 2026-04-19 03:01
Airport Boston Logan International Airport (KBOS)

Arrival

Time 2026-04-19 03:33
Airport Martha's Vineyard Airport (KMVY)
Time Latitude Longitude Altitude Speed Heading
2026-04-19 02:39 42.36528 -71.01530 30 ft 0 kts 301°
2026-04-19 02:50 42.36528 -71.01531 30 ft 2 kts 300°
2026-04-19 02:50 42.36507 -71.01580 21 ft 11 kts 214°
2026-04-19 02:51 42.36428 -71.01548 23 ft 0 kts 120°
2026-04-19 02:53 42.36428 -71.01547 23 ft 1 kts 120°
2026-04-19 02:53 42.36412 -71.01510 21 ft 11 kts 121°
2026-04-19 02:53 42.36372 -71.01396 21 ft 12 kts 113°
2026-04-19 02:54 42.36338 -71.01317 21 ft 10 kts 118°
2026-04-19 02:54 42.36301 -71.01236 21 ft 11 kts 123°
2026-04-19 02:54 42.36260 -71.01147 23 ft 12 kts 115°
2026-04-19 02:54 42.36221 -71.01057 21 ft 10 kts 152°
2026-04-19 02:55 42.36153 -71.01070 21 ft 10 kts 198°
2026-04-19 02:55 42.36079 -71.01105 21 ft 12 kts 200°
2026-04-19 02:55 42.35994 -71.01145 21 ft 13 kts 199°
2026-04-19 02:55 42.35904 -71.01189 21 ft 15 kts 200°
2026-04-19 02:56 42.35804 -71.01237 22 ft 12 kts 200°
2026-04-19 02:56 42.35737 -71.01273 21 ft 8 kts 194°
2026-04-19 02:56 42.35725 -71.01277 21 ft 0 kts 196°
2026-04-19 02:57 42.35713 -71.01282 21 ft 3 kts 199°
2026-04-19 02:57 42.35680 -71.01298 21 ft 7 kts 199°
2026-04-19 02:58 42.35670 -71.01302 21 ft 0 kts 199°
2026-04-19 02:58 42.35657 -71.01307 21 ft 8 kts 193°
2026-04-19 02:59 42.35597 -71.01297 21 ft 5 kts 137°
2026-04-19 02:59 42.35587 -71.01255 21 ft 8 kts 90°
2026-04-19 02:59 42.35593 -71.01206 21 ft 5 kts 78°
2026-04-19 02:59 42.35603 -71.01148 23 ft 0 kts 76°
2026-04-19 03:00 42.35651 -71.00888 22 ft 57 kts 76°
2026-04-19 03:00 42.35771 -71.00233 77 ft 77 kts 72°
2026-04-19 03:00 42.35897 -70.99532 341 ft 80 kts 75°
2026-04-19 03:01 42.35930 -70.98613 539 ft 119 kts 103°
2026-04-19 03:01 42.35575 -70.97448 803 ft 147 kts 110°
2026-04-19 03:01 42.35187 -70.96128 1303 ft 148 kts 107°
2026-04-19 03:01 42.34820 -70.94811 1758 ft 155 kts 110°
2026-04-19 03:02 42.34385 -70.93517 2346 ft 147 kts 115°
2026-04-19 03:02 42.34101 -70.92648 2617 ft 155 kts 115°
2026-04-19 03:02 42.33693 -70.91244 2955 ft 162 kts 112°
2026-04-19 03:02 42.33259 -70.89886 3518 ft 153 kts 123°
2026-04-19 03:03 42.32647 -70.88706 3959 ft 157 kts 134°
2026-04-19 03:03 42.31871 -70.87630 4323 ft 161 kts 140°
2026-04-19 03:03 42.31001 -70.86736 4826 ft 156 kts 156°
2026-04-19 03:03 42.29922 -70.86421 5114 ft 164 kts 179°
2026-04-19 03:04 42.28776 -70.86351 5480 ft 165 kts 175°
2026-04-19 03:04 42.27653 -70.86258 6011 ft 156 kts 180°
2026-04-19 03:04 42.26563 -70.86230 6423 ft 160 kts 173°
2026-04-19 03:04 42.25446 -70.85948 6727 ft 166 kts 169°
2026-04-19 03:05 42.24325 -70.85589 7117 ft 165 kts 167°
2026-04-19 03:05 42.23220 -70.85164 7483 ft 165 kts 165°
2026-04-19 03:05 42.22126 -70.84676 7817 ft 166 kts 164°
2026-04-19 03:05 42.21029 -70.84123 8044 ft 174 kts 161°
2026-04-19 03:06 42.19822 -70.83494 7981 ft 191 kts 161°
2026-04-19 03:06 42.18557 -70.82872 8051 ft 196 kts 164°
2026-04-19 03:06 42.17251 -70.82297 8137 ft 198 kts 165°
2026-04-19 03:06 42.15957 -70.81779 8457 ft 188 kts 167°
2026-04-19 03:07 42.14707 -70.81300 8632 ft 191 kts 168°
2026-04-19 03:07 42.13358 -70.80834 8546 ft 203 kts 169°
2026-04-19 03:07 42.11969 -70.80404 8406 ft 211 kts 169°
2026-04-19 03:07 42.10530 -70.79941 8404 ft 211 kts 170°
2026-04-19 03:08 42.09081 -70.79531 8316 ft 213 kts 172°
2026-04-19 03:08 42.07646 -70.79260 8498 ft 202 kts 177°
2026-04-19 03:08 42.06264 -70.79179 8674 ft 197 kts 182°
2026-04-19 03:08 42.04910 -70.79215 8757 ft 196 kts 184°
2026-04-19 03:09 42.03525 -70.79270 8734 ft 201 kts 184°
2026-04-19 03:09 42.02125 -70.79204 8732 ft 204 kts 169°
2026-04-19 03:09 42.00796 -70.78482 8720 ft 206 kts 161°
2026-04-19 03:09 41.99428 -70.77918 8726 ft 205 kts 170°
2026-04-19 03:10 41.98029 -70.77543 8727 ft 206 kts 172°
2026-04-19 03:10 41.96620 -70.77172 8731 ft 206 kts 173°
2026-04-19 03:10 41.95206 -70.77210 8723 ft 204 kts 181°
2026-04-19 03:10 41.93821 -70.76731 8720 ft 208 kts 162°
2026-04-19 03:11 41.92449 -70.76139 8726 ft 207 kts 168°
2026-04-19 03:11 41.91045 -70.75718 8734 ft 207 kts 171°
2026-04-19 03:11 41.89636 -70.75340 8731 ft 207 kts 171°
2026-04-19 03:11 41.88227 -70.74946 8731 ft 207 kts 171°
2026-04-19 03:12 41.86814 -70.74544 8733 ft 208 kts 171°
2026-04-19 03:12 41.85401 -70.74143 8730 ft 208 kts 170°
2026-04-19 03:12 41.83990 -70.73743 8730 ft 208 kts 171°
2026-04-19 03:12 41.82577 -70.73344 8731 ft 207 kts 171°
2026-04-19 03:13 41.81165 -70.72946 8731 ft 207 kts 171°
2026-04-19 03:13 41.79755 -70.72546 8733 ft 207 kts 171°
2026-04-19 03:13 41.78343 -70.72147 8732 ft 208 kts 171°
2026-04-19 03:13 41.76926 -70.71752 8730 ft 209 kts 171°
2026-04-19 03:14 41.75503 -70.71351 8729 ft 209 kts 171°
2026-04-19 03:14 41.74058 -70.70943 8752 ft 210 kts 171°
2026-04-19 03:14 41.72629 -70.70540 8756 ft 210 kts 170°
2026-04-19 03:14 41.71200 -70.70135 8754 ft 210 kts 171°
2026-04-19 03:15 41.69772 -70.69733 8756 ft 210 kts 171°
2026-04-19 03:15 41.68344 -70.69331 8752 ft 210 kts 171°
2026-04-19 03:15 41.66916 -70.68928 8753 ft 210 kts 171°
2026-04-19 03:15 41.65490 -70.68527 8753 ft 210 kts 171°
2026-04-19 03:16 41.64061 -70.68125 8754 ft 210 kts 171°
2026-04-19 03:16 41.62631 -70.67723 8756 ft 210 kts 170°
2026-04-19 03:16 41.61203 -70.67321 8754 ft 210 kts 171°
2026-04-19 03:16 41.59774 -70.66919 8754 ft 210 kts 171°
2026-04-19 03:17 41.58344 -70.66518 8754 ft 210 kts 171°
2026-04-19 03:17 41.56914 -70.66116 8725 ft 211 kts 171°
2026-04-19 03:17 41.55444 -70.65705 8542 ft 220 kts 171°
2026-04-19 03:17 41.53932 -70.65282 8383 ft 224 kts 171°
2026-04-19 03:18 41.52403 -70.64852 8222 ft 226 kts 171°
2026-04-19 03:18 41.50861 -70.64420 8063 ft 227 kts 170°
2026-04-19 03:18 41.49341 -70.63858 7889 ft 230 kts 156°
2026-04-19 03:18 41.48026 -70.62624 7714 ft 232 kts 143°
2026-04-19 03:19 41.46784 -70.61245 7569 ft 232 kts 142°
2026-04-19 03:19 41.45552 -70.59855 7427 ft 232 kts 142°
2026-04-19 03:19 41.44322 -70.58463 7280 ft 232 kts 142°
2026-04-19 03:19 41.43084 -70.57087 7139 ft 231 kts 142°
2026-04-19 03:20 41.41850 -70.55714 7003 ft 231 kts 143°
2026-04-19 03:20 41.40626 -70.54327 6870 ft 231 kts 142°
2026-04-19 03:20 41.39408 -70.52932 6736 ft 231 kts 142°
2026-04-19 03:20 41.38193 -70.51539 6598 ft 230 kts 142°
2026-04-19 03:21 41.36985 -70.50146 6465 ft 230 kts 140°
2026-04-19 03:21 41.35818 -70.48686 6319 ft 230 kts 138°
2026-04-19 03:21 41.34663 -70.47213 6178 ft 230 kts 138°
2026-04-19 03:21 41.33501 -70.45723 6039 ft 229 kts 138°
2026-04-19 03:22 41.32419 -70.44174 5896 ft 230 kts 129°
2026-04-19 03:22 41.31528 -70.42403 5756 ft 230 kts 124°
2026-04-19 03:22 41.30667 -70.40604 5555 ft 232 kts 124°
2026-04-19 03:22 41.29812 -70.38765 5260 ft 234 kts 124°
2026-04-19 03:23 41.28999 -70.36891 4968 ft 236 kts 114°
2026-04-19 03:23 41.28817 -70.34727 4627 ft 242 kts 82°
2026-04-19 03:23 41.29589 -70.32758 4277 ft 246 kts 47°
2026-04-19 03:23 41.31079 -70.31668 3951 ft 248 kts 14°
2026-04-19 03:24 41.32779 -70.31840 3622 ft 247 kts 340°
2026-04-19 03:24 41.34111 -70.33210 3291 ft 245 kts 306°
2026-04-19 03:24 41.34679 -70.35303 2972 ft 239 kts 274°
2026-04-19 03:24 41.34363 -70.37387 2651 ft 226 kts 247°
2026-04-19 03:25 41.33728 -70.39222 2353 ft 212 kts 244°
2026-04-19 03:25 41.32852 -70.40730 2025 ft 206 kts 219°
2026-04-19 03:25 41.31702 -70.41827 1691 ft 202 kts 206°
2026-04-19 03:25 41.30344 -70.42032 1319 ft 199 kts 162°
2026-04-19 03:26 41.29231 -70.41123 1291 ft 180 kts 136°
2026-04-19 03:26 41.28263 -70.40119 1295 ft 171 kts 148°
2026-04-19 03:26 41.27116 -70.40040 1294 ft 170 kts 201°
2026-04-19 03:26 41.26351 -70.41148 1294 ft 165 kts 255°
2026-04-19 03:27 41.26461 -70.42585 1292 ft 155 kts 293°
2026-04-19 03:27 41.26937 -70.43833 1284 ft 148 kts 322°
2026-04-19 03:27 41.27839 -70.44360 1298 ft 141 kts 345°
2026-04-19 03:27 41.28702 -70.45004 1290 ft 146 kts 323°
2026-04-19 03:28 41.29405 -70.45993 1293 ft 147 kts 316°
2026-04-19 03:28 41.30085 -70.47011 1295 ft 147 kts 315°
2026-04-19 03:28 41.30752 -70.48033 1314 ft 141 kts 314°
2026-04-19 03:28 41.31371 -70.48986 1311 ft 133 kts 315°
2026-04-19 03:29 41.31961 -70.49900 1307 ft 127 kts 314°
2026-04-19 03:29 41.32532 -70.50783 1246 ft 122 kts 315°
2026-04-19 03:29 41.33081 -70.51630 1187 ft 120 kts 317°
2026-04-19 03:29 41.33622 -70.52465 1133 ft 116 kts 315°
2026-04-19 03:30 41.34094 -70.53206 1012 ft 97 kts 316°
2026-04-19 03:30 41.34515 -70.53870 823 ft 91 kts 316°
2026-04-19 03:30 41.34911 -70.54526 779 ft 91 kts 311°
2026-04-19 03:30 41.35269 -70.55211 816 ft 91 kts 311°
2026-04-19 03:31 41.35673 -70.55873 861 ft 95 kts 317°
2026-04-19 03:31 41.36122 -70.56502 941 ft 91 kts 320°
2026-04-19 03:31 41.36565 -70.57146 924 ft 96 kts 319°
2026-04-19 03:31 41.37020 -70.57822 876 ft 100 kts 315°
2026-04-19 03:32 41.37497 -70.58515 763 ft 100 kts 318°
2026-04-19 03:32 41.37952 -70.59192 612 ft 95 kts 317°
2026-04-19 03:32 41.38387 -70.59855 435 ft 95 kts 316°
2026-04-19 03:32 41.38820 -70.60506 266 ft 92 kts 316°
2026-04-19 03:33 41.39221 -70.61123 98 ft 85 kts 316°
2026-04-19 03:33 41.39556 -70.61628 55 ft 45 kts 311°
2026-04-19 03:33 41.39648 -70.61799 59 ft 7 kts 254°
2026-04-19 03:33 41.39626 -70.61824 62 ft 3 kts 195°
2026-04-19 03:34 41.39577 -70.61826 62 ft 10 kts 178°
2026-04-19 03:34 41.39498 -70.61818 62 ft 15 kts 175°
2026-04-19 03:34 41.39375 -70.61804 62 ft 18 kts 178°
2026-04-19 03:34 41.39251 -70.61793 57 ft 19 kts 174°
2026-04-19 03:35 41.39128 -70.61779 63 ft 17 kts 174°
2026-04-19 03:35 41.39005 -70.61766 63 ft 18 kts 175°
2026-04-19 03:35 41.38919 -70.61756 61 ft 18 kts 172°
2026-04-19 03:35 41.38816 -70.61669 63 ft 19 kts 131°
2026-04-19 03:36 41.38802 -70.61596 63 ft 1 kts 43°
2026-04-19 03:36 41.38859 -70.61532 60 ft 19 kts 41°
2026-04-19 03:36 41.38959 -70.61417 59 ft 18 kts 40°
2026-04-19 03:36 41.38987 -70.61311 60 ft 13 kts 135°
2026-04-19 03:37 41.38968 -70.61285 62 ft 2 kts 134°
2026-04-19 03:37 41.38964 -70.61286 62 ft 0 kts 218°